Regional Weather Roundup
Issued by NWS

Home | Current Version | Previous Version | Graphics & Text | Print | Product List | Glossary On
Versions: 1 2 3 4 5 6 7 8 9 10 11 12 13 14 15 16 17 18 19 20 21 22 23 24 25 26 27 28 29 30 31 32 33 34 35 36 37 38 39 40 41 42 43 44 45 46 47 48 49 50
000
ASUS43 KBIS 220510
RWRND

NORTH DAKOTA REGIONAL WEATHER ROUNDUP
NATIONAL WEATHER SERVICE BISMARCK ND
1100 PM CST FRI NOV 21 2014

NOTE: "FAIR" INDICATES FEW OR NO CLOUDS BELOW 12,000 FEET WITH NO
SIGNIFICANT WEATHER AND/OR OBSTRUCTIONS TO VISIBILITY.


NDZ001>003-009>011-017-220600-
NORTHWEST NORTH DAKOTA

CITY           SKY/WX    TMP DP  RH WIND       PRES   REMARKS
WILLISTON      MOCLDY    33  28  81 SW7       29.63S
MINOT          CLEAR     35  28  75 SW15      29.60F
MINOT AFB      CLEAR     33  29  87 W14       29.59F
$$

NDZ018>021-031>035-040>046-220600-
SOUTHWEST NORTH DAKOTA

CITY           SKY/WX    TMP DP  RH WIND       PRES   REMARKS
BISMARCK       CLEAR     30  26  85 CALM      29.70F
DICKINSON      CLEAR     34  26  72 SW10      29.66F
GARRISON         N/A     30  27  88 W8        29.63F
HETTINGER ARPT CLEAR     32  25  75 CALM      29.73F
$$

NDZ004>008-012>016-024-026-027-054-220600-
NORTHEAST NORTH DAKOTA

CITY           SKY/WX    TMP DP  RH WIND       PRES   REMARKS
GRAND FORKS    MOCLDY    35  28  75 W12       29.60F
GRND FRKS AFB  CLOUDY    39  31  73 W13       29.61R
DEVILS LAKE    CLEAR     34  25  69 W13       29.60R
$$

NDZ022-023-025-028>030-036>039-047>053-220600-
SOUTHEAST NORTH DAKOTA

CITY           SKY/WX    TMP DP  RH WIND       PRES   REMARKS
FARGO          FAIR      30  25  81 S13       29.69S WCI  20
JAMESTOWN      CLEAR     36  28  73 W10       29.67R
$$




USA.gov is the U.S. government's official web portal to all federal, state and local government web resources and services.